Weather History for Louisville Bowman, KY

Change the Weather History Date:

Monday, January 28, 2008

  Actual Average Record
Temperature  
Mean Temperature 39 °F 35 °F  
Max Temperature 53 °F 43 °F 68 °F (1970)
Min Temperature 25 °F 27 °F -15 °F (1963)
Degree Days  
Heating Degree Days 26 30  
Month to date heating degree days 858  
Since 1 July heating degree days 2522  
Cooling Degree Days 0 0  
Month to date cooling degree days 0  
Year to date cooling degree days 0  
Moisture  
Dew Point 23 °F    
Average Humidity 54    
Maximum Humidity 85    
Minimum Humidity 27    
Precipitation  
Precipitation 0.00 in 0.10 in 1.42 in (1969)
Month to date precipitation 3.07  
Year to date precipitation 3.07  
Sea Level Pressure  
Sea Level Pressure 30.04 in    
Wind  
Wind Speed 4 mph (South)    
Max Wind Speed 16 mph    
Max Gust Speed 25 mph    
Visibility 9 miles    
Events Rain    
T = Trace of Precipitation, MM = Missing Value Source: NWS Daily Summary

Daily Weather History Graph

Daily Weather History Graph

Search for Another Location

Airport:

Trip Planner

Search our weather history database for the weather conditions in past years. The results will help you decide how hot, cold, wet, or windy it might be!

Date:

Astronomy

Jan. 28, 2008 Rise Set
Actual Time 7:51 AM EST 6:00 PM EST
Civil Twilight 7:23 AM EST 6:28 PM EST
Nautical Twilight 6:51 AM EST 7:00 PM EST
Astronomical Twilight 6:20 AM EST 7:31 PM EST
Moon No Moon Rise 10:45 AM EST (1/28)
Length of Visible Light 11h 05m
Length of Day
10h 09m
Waning Gibbous, 64% of the Moon is Illuminated
Jan 28
Waning Gibbous
Jan 30
Last Quarter
Feb 6
New
Feb 13
First Quarter
Feb 20
Full

Hourly Weather History & Observations

Time (EST) Temp. Windchill Dew Point Humidity Pressure Visibility Wind Dir Wind Speed Gust Speed Precip Events Conditions
12:53 AM 28.0 °F - 21.9 °F 78% 30.18 in 7.0 mi Calm Calm - N/A   Clear
1:53 AM 27.0 °F - 21.9 °F 81% 30.19 in 7.0 mi Calm Calm - N/A   Clear
2:53 AM 27.0 °F - 23.0 °F 85% 30.19 in 7.0 mi Calm Calm - N/A   Clear
3:53 AM 26.1 °F - 21.0 °F 81% 30.18 in 7.0 mi Calm Calm - N/A   Clear
4:53 AM 26.1 °F - 19.9 °F 78% 30.18 in 7.0 mi Calm Calm - N/A   Clear
5:53 AM 26.1 °F - 21.0 °F 81% 30.19 in 7.0 mi Calm Calm - N/A   Clear
6:53 AM 25.0 °F - 21.0 °F 85% 30.18 in 7.0 mi Calm Calm - N/A   Clear
7:53 AM 30.0 °F 25.2 °F 24.1 °F 79% 30.17 in 7.0 mi South 4.6 mph - N/A   Clear
8:53 AM 33.8 °F 29.6 °F 26.6 °F 75% 30.14 in 7.0 mi South 4.6 mph - N/A   Clear
9:53 AM 37.9 °F 32.1 °F 28.9 °F 70% 30.14 in 9.0 mi South 8.1 mph - N/A   Clear
10:53 AM 42.1 °F 37.1 °F 28.9 °F 60% 30.15 in 10.0 mi SSW 8.1 mph - N/A   Clear
11:53 AM 44.6 °F 40.2 °F 26.6 °F 49% 30.11 in 10.0 mi South 8.1 mph - N/A   Clear
12:53 PM 46.9 °F - 26.1 °F 44% 30.09 in 10.0 mi South 9.2 mph - N/A   Clear
1:53 PM 48.2 °F - 23.0 °F 37% 30.03 in 10.0 mi Variable 5.8 mph - N/A   Clear
2:53 PM 48.2 °F - 21.2 °F 34% 29.99 in 10.0 mi South 8.1 mph - N/A   Scattered Clouds
3:53 PM 48.9 °F - 21.9 °F 35% 29.99 in 10.0 mi South 6.9 mph - N/A   Mostly Cloudy
4:53 PM 48.9 °F - 23.0 °F 36% 29.98 in 10.0 mi South 6.9 mph - N/A   Overcast
5:53 PM 50.0 °F - 19.0 °F 29% 29.92 in 10.0 mi SSE 9.2 mph - N/A   Mostly Cloudy
6:53 PM 50.0 °F - 19.0 °F 29% 29.90 in 10.0 mi South 9.2 mph - N/A   Mostly Cloudy
7:53 PM 51.1 °F - 18.0 °F 27% 29.87 in 10.0 mi South 8.1 mph - N/A   Overcast
8:53 PM 52.0 °F - 19.0 °F 27% 29.88 in 10.0 mi South 12.7 mph 18.4 mph N/A   Overcast
9:53 PM 53.1 °F - 19.9 °F 27% 29.83 in 10.0 mi South 13.8 mph 25.3 mph 0.00 in   Overcast
10:53 PM 52.0 °F - 21.9 °F 31% 29.81 in 10.0 mi South 16.1 mph 24.2 mph 0.00 in Rain Light Rain
11:53 PM 50.0 °F - 27.0 °F 41% 29.78 in 10.0 mi South 12.7 mph 19.6 mph 0.00 in Rain Light Rain